Location: Glendale
(37.4556°N, 88.6714°W)
Time: 11:07:22
(UTC+00:00)

Cosmos 407 Rocket - Pass Details

Date: 08 December 2019
Orbit: 743 x 787 km, 74.0° (Epoch: 27 January)

Event Time Altitude Azimuth Distance (km) Brightness Sun altitude
Rises 00:36:11 0° 197° (SSW) 3,177 7.1 -23.1°
Reaches altitude 10° 00:38:31 10° 197° (SSW) 2,262 6.3 -23.6°
Maximum altitude 00:43:39 89° 285° (WNW) 762 3.4 -24.6°
Enters shadow 00:44:52 54° 15° (NNE) 916 3.7 -24.8°
